Location: Hilton Head Island
(32.2163°N, 80.7526°W)
Time: 19:07:00
(UTC-05:00)

Transit 2A - Pass Details

Date: 25 February 2026
Orbit: 590 x 954 km, 66.7° (Epoch: 7 March)

Event Time Altitude Azimuth Distance (km) Brightness Sun altitude
Rises 19:27:01 0° 345° (NNW) 3,497 9.6 -15.4°
Reaches altitude 10° 19:29:59 10° 357° (N) 2,500 8.7 -16.1°
Maximum altitude 19:34:52 28° 55° (NE) 1,488 7.0 -17.1°
Enters shadow 19:35:38 27° 69° (ENE) 1,506 7.0 -17.3°
